User: anonymous   Login
Location: Unspecified
(0.0000°N, 0.0000°E)
Time: 04:34:47
(UTC+01:00)
Language:

CZ-4B DEB - Orbit

View from above orbital plane
View from above orbital plane
View from above satellite
View from above satellite

Ground track
Ground track

The orbit data is extracted from the following two-line orbital elements,

1 33411U 08053D   14332.47629866  .00027131  00000-0  14036-2 0  3432
2 33411 097.5049 349.4172 0011510 059.8341 300.4030 15.16153377333138
Epoch (UTC): 28 November 2014 11:25:52
Eccentricity: 0.0011510
inclination: 97.5049°
perigee height: 509 km
apogee height: 525 km
right ascension of ascending node: 349.4172°
argument of perigee: 59.8341°
revolutions per day: 15.16153377
mean anomaly at epoch: 300.4030°
orbit number at epoch: 33313

The dashed part of the orbit path shows where the satellite is in the earth's shadow,  

DLR